QPF
0.00 0.00 0.00 0.00 0.01 0.01 0.02 0.04 0.07 0.08 0.08 0.06 0.06 0.07 0.08 0.08 0.08 0.09 0.07 0.08 0.08 0.06 0.05 0.04 0.04 0.03 0.03 0.02 0.02 0.01 0.01 0.02 0.03 0.04 0.05 0.06 0.08 0.09
0.00 0.00 0.00 0.00 0.00 0.01 0.01 0.02 0.05 0.08 0.08 0.08 0.08 0.08 0.09 0.09 0.10 0.09 0.10 0.12 0.10 0.07 0.05 0.04 0.04 0.04 0.04 0.02 0.02 0.01 0.01 0.01 0.01 0.01 0.01 0.02 0.03 0.04
0.00 0.00 0.00 0.00 0.00 0.00 0.01 0.01 0.03 0.05 0.08 0.08 0.09 0.10 0.10 0.10 0.09 0.09 0.09 0.10 0.09 0.07 0.06 0.04 0.03 0.03 0.03 0.03 0.02 0.01 0.01 0.01 0.01 0.01 0.01 0.02 0.02 0.02
0.00 0.00 0.00 0.00 0.00 0.00 0.00 0.00 0.01 0.03 0.05 0.08 0.09 0.12 0.13 0.12 0.11 0.11 0.09 0.09 0.08 0.07 0.06 0.05 0.03 0.02 0.02 0.02 0.02 0.01 0.01 0.01 0.01 0.01 0.01 0.02 0.02 0.02
0.00 0.00 0.00 0.00 0.00 0.00 0.00 0.00 0.00 0.02 0.03 0.05 0.08 0.12 0.17 0.18 0.16 0.12 0.08 0.08 0.07 0.06 0.05 0.04 0.04 0.03 0.02 0.02 0.02 0.02 0.01 0.01 0.00 0.01 0.01 0.02 0.02 0.02
0.00 0.00 0.00 0.00 0.00 0.00 0.00 0.00 0.00 0.01 0.02 0.04 0.06 0.11 0.18 0.23 0.21 0.17 0.10 0.06 0.05 0.04 0.04 0.03 0.03 0.03 0.02 0.01 0.01 0.02 0.01 0.01 0.01 0.00 0.01 0.01 0.01 0.02
0.00 0.00 0.00 0.00 0.00 0.00 0.00 0.00 0.00 0.00 0.01 0.03 0.04 0.10 0.18 0.26 0.26 0.22 0.15 0.09 0.05 0.03 0.03 0.02 0.02 0.02 0.02 0.01 0.01 0.01 0.01 0.01 0.01 0.01 0.01 0.01 0.01 0.01
0.00 0.00 0.00 0.00 0.00 0.00 0.00 0.00 0.00 0.00 0.00 0.01 0.03 0.07 0.16 0.25 0.31 0.33 0.24 0.13 0.05 0.03 0.02 0.02 0.02 0.02 0.02 0.01 0.01 0.01 0.01 0.01 0.01 0.01 0.01 0.01 0.01 0.01
0.00 0.00 0.00 0.00 0.00 0.00 0.00 0.01 0.01 0.00 0.00 0.00 0.02 0.04 0.11 0.24 0.33 0.35 0.30 0.21 0.10 0.04 0.02 0.01 0.02 0.02 0.02 0.02 0.02 0.01 0.01 0.01 0.01 0.01 0.01 0.01 0.01 0.01
0.00 0.00 0.00 0.00 0.00 0.00 0.00 0.00 0.00 0.00 0.00 0.00 0.01 0.03 0.08 0.18 0.33 0.39 0.39 0.31 0.20 0.10 0.04 0.02 0.02 0.02 0.02 0.02 0.03 0.02 0.01 0.01 0.01 0.01 0.01 0.01 0.01 0.01
0.00 0.00 0.00 0.00 0.00 0.00 0.00 0.00 0.00 0.00 0.01 0.01 0.01 0.02 0.08 0.18 0.29 0.44 0.48 0.41 0.27 0.15 0.06 0.02 0.01 0.01 0.02 0.02 0.02 0.03 0.02 0.01 0.01 0.01 0.01 0.01 0.01 0.01
0.00 0.00 0.00 0.00 0.00 0.00 0.01 0.01 0.00 0.00 0.01 0.01 0.01 0.02 0.05 0.16 0.25 0.31 0.41 0.41 0.29 0.17 0.08 0.03 0.01 0.01 0.01 0.01 0.01 0.01 0.01 0.02 0.02 0.01 0.01 0.01 0.00 0.00
0.01 0.01 0.01 0.01 0.00 0.00 0.01 0.01 0.01 0.01 0.02 0.02 0.02 0.02 0.04 0.09 0.20 0.23 0.31 0.37 0.30 0.17 0.10 0.05 0.02 0.01 0.00 0.00 0.01 0.01 0.01 0.00 0.01 0.01 0.01 0.01 0.00 0.00
0.01 0.01 0.01 0.01 0.01 0.01 0.01 0.02 0.02 0.02 0.02 0.02 0.02 0.02 0.03 0.06 0.11 0.19 0.23 0.32 0.31 0.22 0.14 0.09 0.05 0.02 0.01 0.00 0.00 0.00 0.01 0.01 0.00 0.00 0.00 0.00 0.00 0.00
0.01 0.01 0.02 0.02 0.02 0.02 0.02 0.03 0.04 0.04 0.03 0.02 0.02 0.02 0.02 0.05 0.10 0.17 0.26 0.32 0.38 0.33 0.25 0.14 0.08 0.04 0.01 0.00 0.00 0.00 0.00 0.00 0.00 0.00 0.00 0.00 0.00 0.00
0.01 0.02 0.03 0.04 0.04 0.04 0.05 0.05 0.05 0.05 0.05 0.04 0.03 0.03 0.04 0.06 0.10 0.18 0.28 0.34 0.39 0.39 0.30 0.21 0.12 0.07 0.04 0.01 0.00 0.00 0.00 0.00 0.00 0.00 0.00 0.00 0.00 0.00
0.01 0.02 0.02 0.04 0.06 0.06 0.06 0.07 0.07 0.07 0.08 0.06 0.05 0.04 0.03 0.05 0.10 0.17 0.24 0.31 0.31 0.33 0.29 0.23 0.16 0.10 0.06 0.03 0.01 0.00 0.00 0.00 0.00 0.00 0.00 0.00 0.00 0.00
0.01 0.01 0.03 0.04 0.07 0.07 0.07 0.07 0.07 0.07 0.07 0.06 0.05 0.04 0.04 0.04 0.09 0.17 0.22 0.25 0.25 0.26 0.28 0.22 0.16 0.12 0.08 0.05 0.02 0.00 0.00 0.00 0.00 0.00 0.00 0.00 0.00 0.00
0.01 0.01 0.02 0.04 0.05 0.05 0.06 0.06 0.06 0.05 0.05 0.05 0.05 0.04 0.04 0.05 0.09 0.16 0.21 0.24 0.24 0.23 0.25 0.26 0.18 0.12 0.09 0.06 0.03 0.01 0.00 0.00 0.00 0.00 0.00 0.00 0.00 0.00
0.01 0.01 0.01 0.02 0.02 0.03 0.04 0.05 0.04 0.04 0.03 0.03 0.03 0.04 0.05 0.05 0.08 0.13 0.19 0.22 0.22 0.21 0.22 0.23 0.21 0.14 0.09 0.07 0.04 0.02 0.01 0.00 0.00 0.00 0.00 0.00 0.00 0.00
0.01 0.00 0.01 0.01 0.02 0.03 0.03 0.03 0.03 0.03 0.03 0.02 0.02 0.03 0.05 0.06 0.07 0.11 0.16 0.21 0.22 0.20 0.18 0.18 0.16 0.18 0.15 0.13 0.11 0.07 0.03 0.01 0.00 0.00 0.00 0.00 0.00 0.00
0.01 0.00 0.01 0.01 0.02 0.03 0.03 0.03 0.03 0.03 0.03 0.03 0.02 0.02 0.04 0.06 0.08 0.09 0.13 0.18 0.18 0.19 0.18 0.18 0.20 0.19 0.20 0.18 0.13 0.09 0.05 0.03 0.01 0.01 0.00 0.00 0.00 0.00
0.01 0.01 0.01 0.02 0.02 0.02 0.03 0.03 0.03 0.03 0.03 0.04 0.02 0.02 0.03 0.05 0.07 0.09 0.10 0.14 0.16 0.19 0.24 0.24 0.24 0.21 0.17 0.16 0.14 0.11 0.08 0.04 0.02 0.01 0.00 0.00 0.00 0.00
MSLP
1013.31 1013.41 1013.51 1013.55 1013.50 1013.34 1013.06 1012.68 1012.23 1011.74 1011.26 1010.80 1010.39 1010.05 1009.78 1009.57 1009.43 1009.36 1009.36 1009.46 1009.67 1009.99 1010.43 1010.99 1011.63 1012.33 1013.06 1013.79 1014.48 1015.14 1015.74 1016.31 1016.84 1017.35 1017.85 1018.33 1018.78 1019.20
1012.85 1012.94 1013.02 1013.06 1013.03 1012.91 1012.69 1012.39 1012.03 1011.63 1011.22 1010.82 1010.45 1010.11 1009.81 1009.56 1009.35 1009.20 1009.12 1009.15 1009.28 1009.55 1009.95 1010.47 1011.09 1011.78 1012.50 1013.22 1013.91 1014.57 1015.18 1015.75 1016.29 1016.81 1017.31 1017.79 1018.25 1018.67
1012.31 1012.36 1012.41 1012.44 1012.43 1012.35 1012.20 1011.99 1011.74 1011.45 1011.14 1010.84 1010.53 1010.24 1009.95 1009.69 1009.45 1009.25 1009.13 1009.10 1009.19 1009.40 1009.76 1010.23 1010.80 1011.44 1012.12 1012.80 1013.45 1014.07 1014.65 1015.21 1015.74 1016.26 1016.77 1017.27 1017.74 1018.17
1011.72 1011.73 1011.75 1011.77 1011.77 1011.73 1011.65 1011.53 1011.38 1011.21 1011.02 1010.82 1010.60 1010.37 1010.13 1009.89 1009.66 1009.46 1009.32 1009.27 1009.33 1009.51 1009.81 1010.24 1010.75 1011.32 1011.92 1012.52 1013.11 1013.67 1014.20 1014.71 1015.22 1015.73 1016.24 1016.75 1017.25 1017.70
1011.11 1011.09 1011.09 1011.10 1011.10 1011.10 1011.08 1011.04 1010.99 1010.92 1010.84 1010.73 1010.60 1010.45 1010.27 1010.08 1009.89 1009.73 1009.61 1009.57 1009.63 1009.80 1010.07 1010.44 1010.89 1011.39 1011.90 1012.41 1012.90 1013.38 1013.84 1014.30 1014.77 1015.26 1015.77 1016.29 1016.80 1017.29
1010.50 1010.46 1010.44 1010.45 1010.47 1010.50 1010.52 1010.55 1010.57 1010.58 1010.57 1010.55 1010.50 1010.42 1010.31 1010.19 1010.06 1009.95 1009.89 1009.90 1009.99 1010.17 1010.44 1010.79 1011.18 1011.60 1012.03 1012.45 1012.85 1013.23 1013.62 1014.01 1014.44 1014.90 1015.40 1015.92 1016.45 1016.96
1009.90 1009.85 1009.83 1009.84 1009.87 1009.92 1009.98 1010.04 1010.11 1010.17 1010.22 1010.25 1010.25 1010.24 1010.19 1010.14 1010.09 1010.07 1010.08 1010.16 1010.31 1010.54 1010.83 1011.17 1011.54 1011.91 1012.28 1012.62 1012.94 1013.25 1013.56 1013.90 1014.28 1014.71 1015.19 1015.71 1016.24 1016.76
1009.28 1009.23 1009.23 1009.24 1009.29 1009.36 1009.44 1009.53 1009.62 1009.70 1009.78 1009.84 1009.88 1009.90 1009.91 1009.93 1009.96 1010.01 1010.12 1010.29 1010.51 1010.80 1011.14 1011.51 1011.88 1012.24 1012.58 1012.88 1013.16 1013.42 1013.70 1014.00 1014.35 1014.75 1015.20 1015.70 1016.22 1016.74
1008.63 1008.60 1008.61 1008.64 1008.71 1008.79 1008.88 1008.98 1009.08 1009.18 1009.26 1009.33 1009.39 1009.44 1009.49 1009.56 1009.66 1009.80 1009.99 1010.24 1010.55 1010.92 1011.32 1011.73 1012.14 1012.53 1012.87 1013.19 1013.46 1013.73 1013.99 1014.29 1014.62 1015.01 1015.44 1015.92 1016.42 1016.91
1007.95 1007.94 1007.96 1008.01 1008.09 1008.19 1008.30 1008.41 1008.51 1008.60 1008.68 1008.76 1008.82 1008.89 1008.98 1009.09 1009.24 1009.44 1009.70 1010.03 1010.42 1010.85 1011.32 1011.80 1012.27 1012.71 1013.11 1013.47 1013.79 1014.10 1014.40 1014.72 1015.07 1015.46 1015.89 1016.34 1016.81 1017.26
1007.24 1007.24 1007.27 1007.34 1007.44 1007.55 1007.67 1007.79 1007.90 1007.99 1008.08 1008.16 1008.24 1008.32 1008.43 1008.57 1008.75 1009.00 1009.31 1009.68 1010.13 1010.62 1011.15 1011.69 1012.23 1012.74 1013.22 1013.67 1014.08 1014.47 1014.84 1015.22 1015.62 1016.03 1016.45 1016.88 1017.32 1017.74
1006.54 1006.53 1006.57 1006.65 1006.75 1006.87 1007.00 1007.13 1007.25 1007.37 1007.47 1007.57 1007.66 1007.77 1007.89 1008.05 1008.25 1008.52 1008.85 1009.25 1009.72 1010.25 1010.82 1011.42 1012.02 1012.61 1013.19 1013.73 1014.25 1014.75 1015.22 1015.68 1016.13 1016.58 1017.02 1017.44 1017.85 1018.23
1005.87 1005.85 1005.88 1005.94 1006.04 1006.16 1006.30 1006.44 1006.59 1006.73 1006.86 1006.99 1007.11 1007.24 1007.39 1007.56 1007.78 1008.05 1008.38 1008.78 1009.25 1009.78 1010.37 1011.00 1011.65 1012.32 1012.98 1013.63 1014.26 1014.86 1015.44 1016.00 1016.52 1017.01 1017.47 1017.89 1018.28 1018.63
1005.28 1005.23 1005.23 1005.26 1005.34 1005.45 1005.59 1005.74 1005.91 1006.08 1006.25 1006.42 1006.59 1006.75 1006.92 1007.12 1007.33 1007.60 1007.91 1008.29 1008.74 1009.25 1009.83 1010.47 1011.16 1011.88 1012.61 1013.35 1014.08 1014.78 1015.46 1016.09 1016.68 1017.22 1017.70 1018.13 1018.51 1018.84
1004.80 1004.70 1004.65 1004.64 1004.68 1004.76 1004.88 1005.04 1005.23 1005.43 1005.64 1005.86 1006.07 1006.27 1006.47 1006.68 1006.90 1007.15 1007.45 1007.79 1008.20 1008.69 1009.25 1009.88 1010.58 1011.32 1012.11 1012.91 1013.71 1014.49 1015.24 1015.94 1016.58 1017.15 1017.66 1018.10 1018.48 1018.81
1004.41 1004.26 1004.15 1004.08 1004.07 1004.11 1004.21 1004.36 1004.55 1004.78 1005.03 1005.28 1005.54 1005.78 1006.01 1006.24 1006.46 1006.70 1006.97 1007.28 1007.66 1008.11 1008.64 1009.25 1009.94 1010.70 1011.51 1012.34 1013.19 1014.01 1014.80 1015.54 1016.22 1016.82 1017.34 1017.80 1018.19 1018.53
1004.11 1003.90 1003.73 1003.60 1003.53 1003.53 1003.59 1003.72 1003.91 1004.15 1004.41 1004.70 1004.98 1005.26 1005.52 1005.76 1005.99 1006.22 1006.47 1006.76 1007.10 1007.52 1008.03 1008.62 1009.29 1010.05 1010.86 1011.70 1012.56 1013.40 1014.21 1014.96 1015.65 1016.26 1016.80 1017.27 1017.67 1018.05
1003.85 1003.60 1003.37 1003.19 1003.06 1003.01 1003.04 1003.14 1003.31 1003.55 1003.82 1004.12 1004.42 1004.71 1004.98 1005.23 1005.46 1005.69 1005.92 1006.20 1006.53 1006.93 1007.41 1007.99 1008.66 1009.40 1010.20 1011.04 1011.89 1012.73 1013.53 1014.28 1014.96 1015.57 1016.11 1016.59 1017.03 1017.44
1003.58 1003.30 1003.04 1002.82 1002.66 1002.57 1002.56 1002.64 1002.79 1003.01 1003.27 1003.56 1003.86 1004.14 1004.41 1004.66 1004.88 1005.11 1005.34 1005.61 1005.93 1006.33 1006.81 1007.39 1008.04 1008.78 1009.57 1010.40 1011.23 1012.05 1012.84 1013.57 1014.24 1014.84 1015.39 1015.89 1016.36 1016.81
1003.26 1002.98 1002.72 1002.48 1002.30 1002.20 1002.17 1002.22 1002.35 1002.55 1002.79 1003.05 1003.32 1003.59 1003.84 1004.07 1004.28 1004.49 1004.73 1005.00 1005.33 1005.73 1006.22 1006.81 1007.47 1008.20 1008.99 1009.81 1010.62 1011.42 1012.19 1012.90 1013.56 1014.16 1014.71 1015.23 1015.73 1016.23
1002.88 1002.62 1002.37 1002.15 1001.98 1001.87 1001.84 1001.89 1002.00 1002.17 1002.38 1002.61 1002.84 1003.07 1003.28 1003.48 1003.68 1003.88 1004.11 1004.38 1004.73 1005.15 1005.66 1006.26 1006.93 1007.68 1008.47 1009.27 1010.08 1010.86 1011.61 1012.30 1012.95 1013.56 1014.12 1014.67 1015.20 1015.75
1002.43 1002.20 1001.99 1001.81 1001.67 1001.59 1001.57 1001.62 1001.72 1001.86 1002.04 1002.23 1002.42 1002.60 1002.77 1002.94 1003.10 1003.29 1003.51 1003.79 1004.15 1004.59 1005.12 1005.74 1006.44 1007.20 1007.99 1008.80 1009.60 1010.37 1011.10 1011.79 1012.44 1013.04 1013.63 1014.19 1014.76 1015.35
1001.94 1001.76 1001.60 1001.46 1001.37 1001.32 1001.33 1001.38 1001.48 1001.60 1001.75 1001.90 1002.05 1002.18 1002.31 1002.44 1002.58 1002.75 1002.96 1003.25 1003.62 1004.08 1004.63 1005.27 1005.99 1006.75 1007.56 1008.36 1009.16 1009.93 1010.66 1011.34 1011.99 1012.60 1013.19 1013.78 1014.37 1014.98
Thickness
5611 5612 5615 5618 5621 5624 5628 5632 5635 5642 5652 5662 5670 5678 5683 5690 5696 5701 5706 5711 5714 5716 5718 5720 5721 5721 5721 5721 5720 5719 5718 5718 5717 5716 5716 5715 5714 5713
5601 5603 5606 5610 5613 5617 5621 5625 5629 5634 5641 5651 5658 5666 5673 5681 5688 5694 5700 5706 5709 5712 5714 5716 5718 5719 5719 5719 5719 5718 5717 5717 5716 5716 5715 5714 5713 5712
5592 5594 5598 5601 5604 5609 5613 5617 5622 5627 5633 5641 5649 5656 5664 5671 5679 5686 5692 5698 5703 5706 5709 5711 5714 5715 5716 5716 5717 5716 5716 5716 5715 5715 5714 5713 5713 5712
5584 5586 5589 5592 5596 5600 5604 5609 5614 5620 5625 5632 5639 5646 5654 5662 5669 5675 5682 5688 5693 5698 5702 5705 5708 5710 5712 5713 5714 5714 5714 5714 5714 5713 5712 5712 5712 5710
5576 5578 5581 5583 5586 5590 5595 5600 5605 5612 5617 5623 5629 5636 5645 5652 5658 5664 5670 5676 5682 5688 5693 5697 5701 5704 5706 5709 5710 5711 5712 5712 5712 5711 5711 5711 5710 5708
5569 5570 5572 5575 5578 5582 5586 5591 5596 5601 5608 5614 5620 5626 5634 5642 5648 5654 5659 5665 5670 5677 5682 5687 5692 5696 5699 5703 5705 5707 5708 5709 5709 5709 5708 5708 5707 5706
5561 5562 5564 5566 5569 5573 5577 5581 5586 5591 5598 5604 5611 5617 5624 5632 5640 5646 5650 5654 5659 5666 5672 5677 5682 5686 5690 5695 5699 5701 5703 5704 5705 5705 5705 5705 5704 5703
5553 5553 5554 5557 5561 5564 5569 5573 5577 5582 5589 5595 5602 5608 5616 5624 5632 5637 5642 5646 5650 5657 5663 5665 5671 5676 5681 5686 5691 5695 5697 5699 5700 5700 5701 5701 5701 5700
5544 5544 5545 5549 5551 5554 5558 5563 5569 5574 5580 5587 5594 5601 5608 5616 5623 5630 5635 5640 5645 5650 5654 5654 5659 5664 5670 5676 5682 5687 5690 5693 5694 5695 5695 5696 5696 5694
5536 5536 5536 5537 5539 5541 5546 5551 5557 5564 5570 5577 5585 5593 5599 5606 5614 5622 5628 5631 5635 5640 5647 5646 5647 5652 5658 5665 5672 5678 5682 5685 5687 5688 5689 5690 5689 5688
5527 5527 5527 5528 5529 5530 5534 5539 5545 5552 5557 5565 5573 5581 5589 5596 5604 5611 5617 5623 5627 5630 5635 5640 5639 5642 5646 5653 5660 5667 5672 5675 5678 5680 5682 5682 5681 5680
5518 5517 5517 5518 5518 5519 5522 5527 5533 5540 5545 5552 5560 5568 5576 5585 5594 5603 5611 5617 5622 5625 5627 5632 5633 5637 5638 5641 5648 5655 5661 5665 5668 5671 5672 5673 5674 5673
5509 5508 5508 5507 5507 5508 5510 5515 5521 5526 5532 5539 5548 5556 5565 5575 5585 5594 5602 5610 5617 5623 5625 5628 5630 5634 5639 5636 5639 5645 5651 5655 5658 5659 5662 5664 5666 5667
5502 5501 5500 5499 5498 5498 5500 5503 5507 5512 5520 5527 5536 5546 5556 5566 5576 5585 5593 5602 5610 5617 5621 5625 5628 5631 5633 5634 5634 5635 5640 5645 5650 5652 5653 5654 5655 5657
5496 5494 5493 5492 5491 5492 5493 5495 5497 5503 5511 5519 5528 5538 5547 5557 5566 5576 5584 5593 5599 5606 5611 5618 5625 5627 5633 5634 5633 5633 5633 5636 5641 5644 5646 5647 5649 5650
5492 5491 5490 5489 5487 5487 5488 5489 5492 5498 5505 5513 5521 5529 5537 5546 5557 5567 5576 5585 5590 5595 5600 5608 5615 5621 5625 5628 5631 5631 5634 5634 5635 5638 5640 5641 5642 5644
5489 5489 5488 5488 5487 5486 5486 5487 5490 5493 5499 5506 5513 5521 5530 5539 5549 5559 5569 5578 5586 5590 5593 5597 5603 5610 5617 5623 5625 5628 5630 5631 5632 5633 5634 5636 5637 5639
5487 5489 5488 5487 5486 5486 5486 5487 5489 5492 5497 5502 5509 5517 5526 5534 5543 5552 5562 5572 5581 5586 5589 5591 5596 5600 5605 5609 5619 5624 5626 5627 5627 5628 5631 5633 5633 5634
5489 5490 5489 5488 5488 5487 5487 5488 5490 5492 5496 5501 5507 5514 5521 5529 5538 5547 5557 5566 5574 5581 5584 5588 5595 5602 5606 5611 5610 5618 5623 5623 5622 5623 5626 5629 5632 5632
5493 5492 5492 5491 5490 5490 5490 5490 5492 5494 5497 5501 5507 5512 5518 5526 5534 5543 5553 5563 5571 5576 5579 5583 5592 5602 5610 5614 5609 5610 5615 5619 5620 5620 5620 5620 5623 5623
5497 5495 5494 5494 5494 5494 5493 5493 5494 5497 5499 5502 5507 5511 5516 5523 5531 5540 5549 5557 5567 5573 5578 5583 5589 5593 5598 5600 5600 5601 5605 5609 5615 5618 5617 5617 5618 5619
5499 5499 5498 5497 5497 5497 5497 5497 5498 5500 5502 5504 5508 5512 5516 5522 5530 5538 5547 5556 5564 5571 5576 5578 5579 5585 5592 5598 5600 5598 5599 5600 5603 5607 5612 5618 5620 5621
5503 5502 5502 5502 5501 5501 5501 5502 5503 5504 5506 5507 5510 5514 5518 5522 5529 5536 5544 5553 5560 5566 5570 5573 5576 5581 5588 5592 5594 5593 5593 5595 5597 5600 5602 5606 5612 5616